"Pseudo-MPEC" for A106TTz

Created 2018 May 19 18:18:08 UT using Find_Orb

Click here for an explanation of pseudo-MPECs

 
 Astrometry: 
     A106TTz  C2018 05 15i0Astrometry;979N,e!@cRo7l\DTNg(we^p^-EW[hhP[Yi0?Te_T05
     A106TTz  C2018 05 15q=.cdjasN!p:_@Rl?/M.wXC0G-OVMhMjwj.AR'n(dtA+L3J\:23rT05
     A106TTz  C2018 05 150Dt=M*j15mwhTX]4:!/[`[Heqcw+5a)cY0m#%ls[j5y#=2xaHGsdT05
     A106TTz  C2018 05 15WXS?a=xLd!RiHL$8Bm:Aq1u)06+1%Ot](9yEkKdF#Sn)X`KKUFvfT05
     A106TTz  C2018 05 15BZP2e;ODj#\sp[ra`\a=j0GJL'YM$FI^P[#ldH6g*/]?\x%:BbJCT05
     A106TTz  C2018 05 16dNJF.wJ.b^[e*FgAgq*Kjf#o+=lGAi2p9XXj\fjDJc/QPmZrGGvpH01
     A106TTz  C2018 05 16,mbSi,?9yQqj3]41anOptZB6[:]\jTh^puMofF7F4t4y5)N,W.`yH01
     A106TTz  C2018 05 16.21666 16 54 32.91 -10 56 18.9          17.9 GUNEOCPI52
     A106TTz  C2018 05 16.21857 16 54 32.96 -10 56 07.8          18.5 GUNEOCPI52
     A106TTz  C2018 05 16.22034 16 54 32.99 -10 55 57.8          18.4 GUNEOCPI52
     A106TTz  C2018 05 16yA:\W*6yB-uIcji?je$TTXj],Pno6nn2bPiFAii(8Eb(eRbP1=*iH01
     A106TTz  C2018 05 16-AO76DM^l9Fw)lL5j(ERd0^L;oiy^PA4g12oI%.ok;t=Qta3s9w*H01
     A106TTz !C2018 05 16xIyGmx,Cste*,4Sevgh;_I5G\/:Ym8\l`OjFMd@lHVl23D*O*S+i673
     A106TTz !C2018 05 16'EN89@RheRo)La+RA;xxNfBX;f31/o12C#KdUm)-c2Y$qe3dxaPt673
     A106TTz KC2018 05 16sE!_2fo'Q[KT`icSrJp^]O/IOBg']q!1pVp(C?0NT5):$FHPqhTGE08
     A106TTz KC2018 05 16wWvtD#1oYBe5mHXf2aAGj5%j]/aVQ#(MTr14Aj0-#U8jAy1hCFG4E08
     A106TTz pC2018 05 16^VO:aEqisKFk]42'DsaH(8IS#kQ#8?aHnU/:My3REXiYDqWX%2qJL01
     A106TTz IC2018 05 16@NoqR.6mV*#@x*s1\iLQhw.,/h`B_db4Z3@h#gx-jr,tkq1/;]:)L01
     A106TTz IC2018 05 16ZIii7OeP:'tn8qn%JgeyX\0BQG\Z[_I$PyD'mKEg@^]kQpB5AwL+L01
     A106TTz KC2018 05 16?#RU^g;alk`6rS;rt50W'(/QJ'Al$mQwJ^SbKHJq90af#8llHJMPL01
     A106TTz (C2018 05 173%:FsmxJq\WZa%*Ysredacted;n@_fwwYDy]q)pP)dP*7w\bor?OG40
     A106TTz (C2018 05 17YyYlr'gWnd.Mba0ZjZdsx;W689Ra1K6EJI7BQ$SyC;L+6?lJ*@ywG40
     A106TTz  C2018 05 17.23935 16 55 03.39 -09 19 09.5          17.8 GUNEOCPI52
     A106TTz  C2018 05 17.24150 16 55 03.41 -09 18 57.2          17.8 GUNEOCPI52
     A106TTz  C2018 05 17.24365 16 55 03.43 -09 18 45.2          17.6 GUNEOCPI52
     A106TTz  C2018 05 17.24579 16 55 03.49 -09 18 32.9          18.2 GUNEOCPI52
     A106TTz KC2018 05 1787kDSVpi!@mm=xqpw:fIh9?[cIU?RXnwVGTLj/G]d[N4XB[BCtbXH36
     A106TTz KC2018 05 177e3Wh?i\=y]KLMZM177Fe%%-Z:*#il5Z1HkSg4i*4L/`Tj3e[$eFH36
     A106TTz KC2018 05 17]D-=_7tN]/bI1TyhF]Lm7OEr-1rkUYbnq7v._W294e[ZH^`og,*fH36
     A106TTz KC2018 05 17X7Q*(-dEU5\RC\7!n*5YeI\#/Q$P8b=JyHU\Us'e.==+y.,Hlu[WE08
     A106TTz KC2018 05 17Dq5.#m^;UUeT$tj3GKxUhoaB#GjoC%'AQpOTchoC4L!c=i0hg@W7E08
     A106TTz KC2018 05 17[Sn(w%EGSov-XdVvbEc.?Rbt8s1sLYIw[%v(3k%@ICQy+vI*uU])E08
     A106TTz KC2018 05 17;0nh\Nj_KeH.x9gr=1#pyrs]nO`+XUMCR!hlLnWN/hD[+U_!%^NyE23
     A106TTz KC2018 05 17BBN\'`7w34*hvop-CM1qwp\L+A^=vfy#MjU:$_][5RQBuX^a)51cE23
     A106TTz KC2018 05 17L]IG]-dYt=7!-F;e_xFt*RdTAnCRWo6MhZ-bwxc^DXJ)1p#;sug'E23
     A106TTz KC2018 05 17[$Ilt_Mj2;KsWHqta;R1x=[U38N.%/%:4N,b33,yNWM_ZDYA:f,lK41
     A106TTz KC2018 05 17)AHYv%^`*RN29jyLvxUTK:hJtc`o0CjX`J/?bI#;w5Tg4Z=f5K8PK41
     A106TTz KC2018 05 179J40KDSpWmt@f\iiQf$_-8@$%UPq+ig/F!sKy'uVtov;,?*]_cwlK41
     A106TTz KC2018 05 17U=q4L!+2DLAj';p'Bk7p;heG-p^m3[9hRd#%ebk0ifTp'$w#p5N1K41
     A106TTz KC2018 05 17Wm2d=p1PRK?*ivcU^T?MAsxxuZHdb3AUE`s;q#GvB,frou1$:8ygK87
     A106TTz KC2018 05 176U?25APQTLaSf4I77p44T,LO=PCVOdl**XtKc%Z5f3U6l8-Zc425K87
     A106TTz KC2018 05 17=P?:`n%RS/e'4N,n=M\r'rd?YEyw322QRkJ.-Ys4H!uHRjO%UI8TK87
     A106TTz KC2018 05 17H5A4HLPTrRTBaV4P$6%tT'MEW,TZDb\4see)q60Gj(TxJ;nOE*e$K87
     A106TTz 3C2018 05 18%t,,s=lMwji3$L*:\,^d`75!+o**J/YDo?=21D/!gBZ9'Nv3g`sXW88
     A106TTz 3C2018 05 18ON=EXHy\1XZwwlbuUcbQwXLRE98qhF4g%6f;!DB[usM]I\14xgl$W88
     A106TTz  C2018 05 18.44618 16 55 31.74 -07 28 15.5          17.9 GUNEOCPI52
     A106TTz  C2018 05 18.44840 16 55 31.77 -07 28 03.6          18.0 GUNEOCPI52
     A106TTz  C2018 05 18.45013 16 55 31.78 -07 27 54.4          17.9 GUNEOCPI52
     A106TTz  C2018 05 18.45187 16 55 31.80 -07 27 44.9          17.8 GUNEOCPI52
     A106TTz KC2018 05 18?8=20hTWA6m-QH+M*G1=Jn=[(o#Nsvfj.QXb.5)x\j)*uW4!Xr(nE08
     A106TTz KC2018 05 18j=P_t$3qEWYv6B^%%\aJeEEvZ!T4s6(c.X#(\jy'GYW]U;4QW^q#E08
     A106TTz KC2018 05 18^m7_K2lSveS)!C\)jo:(JVD9-Vw$Y5Lpt(A-tN]u9jX:3:wW08_4E08
     A106TTz  C2018 05 18H^MUn%4M::wiBPpFgk_WISj+!(C;kSDGIht=\q`$i6u5#@N4D[XfT08
     A106TTz  C2018 05 18ZDcu`.N*/u-QI%4telcVAR3bH`aZ(:Fki`qEcFRno1(iQO,ap^t2T08
     A106TTz  C2018 05 18vrWNbKtS;5-fZJ3f?\x!OP26!Kd3ia`Irh1w=?8RLY2wlxp(vq.%T08
     A106TTz  C2018 05 18uo#FZjiu*9Gs$D6C7hppGR=DOhS.j($G(88q3vd4oiX_2oM\?'][T08
     A106TTz KC2018 05 18ZTcC3K3oO[wAMH.I3B?VUXBJ,YDg%!q_:Lj'usr;iu#m.Ff!D`%P595
     A106TTz KC2018 05 18sIr6)MaBlUI6\D/S=$Bl(5(!r)F2bP,fBoP]kv8:2N_u'VT$H6mI595
     A106TTz KC2018 05 18N!o`=yl)VhR,KD(=^nlwiM-CQ/3EeQH9,qJpl-[`2`*n$BJt,w')595
     A106TTz KC2018 05 19)7=(VHPp/Gp3q@xwd8d3-Of'5=bsSj(0lX!YPhQl/)jim(TZx;0B691
     A106TTz  C2018 05 19.35512 16 55 53.64 -06 07 35.5          17.8 GUNEOCPI52
     A106TTz  C2018 05 19.35622 16 55 53.64 -06 07 30.2                UNEOCPI52
     A106TTz  C2018 05 19.35732 16 55 53.61 -06 07 24.7                UNEOCPI52
     A106TTz  C2018 05 19.35841 16 55 53.65 -06 07 18.7          17.7 GUNEOCPI52
     A106TTz KC2018 05 19y5^r68bUQ(0dXy;JbxnQFP+(jFBj6[bLM%jO4u1D`iCUm_T7Fv)w691
     A106TTz `C2018 05 19q)s;?T#k'\60p1A;qd8'Xx[Ni[Ne;Wbfa6'D_rLAb\8sX-EByLTQQ62
     A106TTz `C2018 05 19-(@BW`7h$O8+0]D(cfjyX=W?brhTJO7DqH*c6-gfELP\q2E7VEIsQ62
     A106TTz `C2018 05 19VB6V:$ed./YJmB`/\V\-h\xD[Gr7C.n]fYt[eT_XvEY`3v\NEOCPQ62

Station data:
(595) Farra d'Isonzo  (N45.915734 E13.525780)  Italy.  Observers L.
   Bittesini, F. Fabris, E. Pettarin, F. Piani. Measurer E. Pettarin. 0.30-m
   f/4.5 reflector + CCD.
(673) Table Mountain Observatory, Wrightwood  (N34.381488 W117.682170)
   US/California.  Observer W. M. Owen Jr. 0.61-m f/16 reflector + CCD.
(691) Steward Observatory, Kitt Peak - Spacewatch  (N31.957971 W111.599000)
   US/Arizona.  Observer J. V. Scotti. 0.9-m f/3 reflector + CCD.
(E08) Wobblesock Observatory, Coonabarabran  (S31.226991 E149.334310)
   Australia/NSW.
(E23) Arcadia  (S33.621199 E151.071190)  Australia/NSW.
(G40) Slooh.com Canary Islands Observatory  (N28.299720 W16.508260)  Canary
   Islands (Spain).  Observers G. Gašparović, Y. Chen. 0.43-m f/6.8 Corrected
   Dall-Kirkham + CCD.
(H01) Magdalena Ridge Observatory, Socorro  (N33.985151 W107.189200)  US/New
   Mexico.  Observers W. H. Ryan, E. V. Ryan. Measurer W. H. Ryan. 2.4-m
   f/8.9 reflector + CCD.
(H36) Sandlot Observatory, Scranton  (N38.797693 W95.706400)  US/Kansas.
   Observer G. Hug. 0.56-m reflector + CCD.
(I52) Steward Observatory, Mt. Lemmon Station  (N32.442547 W110.788920)
   US/Arizona.
(K41) Vegaquattro Astronomical Obs., Novi Ligure  (N44.771183 E8.793000)
   Italy.
(K87) Dettelbach Vineyard Observatory  (N49.807693 E10.170110)  Germany.
(L01) Višnjan Observatory, Tičan  (N45.290900 E13.749300)  Croatia.
(Q62) iTelescope Observatory, Siding Spring  (S31.273289 E149.064420)
   Australia/NSW. 0.50-m f/6.8 astrograph + CCD + focal reducer, 0.70-m f/6.6
   astrograph + CCD.
(T05) ATLAS-HKO, Haleakala  (N20.707573 W156.257010)  US/Hawaii.  Observers
   L. Denneau, A. Heinze, H. Weiland, B. Stalder, J. Tonry, A. Sherstyuk.
   Measurers L. Denneau, A. Heinze, J. Tonry. 0.5-m f/2.0 Schmidt + CCD.
(T08) ATLAS-MLO, Mauna Loa  (N19.535772 W155.576400)  US/Hawaii.
(W88) Slooh.com Chile Observatory, La Dehesa  (S33.269128 W70.534300)  Chile.
   0.35-m f/11 Schmidt-Cassegrain + CCD.

Orbital elements:  A106TTz
   Perihelion 2018 Apr 13.670916 +/- 0.0151 TT = 16:06:07 (JD 2458222.170916)
Epoch 2018 May 19.0 TT = JDT 2458257.5   Earth MOID: 0.1588   AutoNEOCP
M  14.70194 +/- 0.046               (J2000 ecliptic)
n   0.41614287 +/- 0.00116          Peri.  336.30536 +/- 0.015
a   1.77681033 +/- 0.00331          Node   232.31960 +/- 0.006
e   0.3530937 +/- 0.00104           Incl.   18.26518 +/- 0.034
P   2.37/865.07d           H 20.7   G  0.15   U  8.2  
q 1.14942972 +/- 0.000303    Q 2.40419094 +/- 0.00635
From 68 observations 2018 May 15-19; mean residual 0".28
Residuals in arcseconds: 
180515 T05  .19+  .01-    180517 I52  .22-  .26-    180518 I52  .23+  .05-    
180515 T05  .37+  .26-    180517 I52  .43-  .28-    180518 I52  .11+  .23-    
180515 T05  .42-  .03-    180517 I52  .05-  .05+    180518 I52  .13+  .17-    
180515 T05  .03-  .02-    180517 H36  .01+  .27-    180518 E08  .02-  .51-    
180515 T05  .32+  .04-    180517 H36  .15+  .19+    180518 E08  .01+  .39-    
180516 H01  .02+  .06+    180517 H36  .32+  .05+    180518 E08  .17+  .41-    
180516 H01  .16+  .06+    180517 E08  .07+  .13-    180518 T08  .34-  .38-    
180516 I52  .14-  .13-    180517 E08  .07-  .09-    180518 T08  .04-  .26+    
180516 I52  .02-  .00     180517 E08  .07+  .28-    180518 T08  .27+  .33+    
180516 I52  .14-  .17-    180517 E23  .10+  .45+    180518 T08  .11+  .17+    
180516 H01  .12-  .02-    180517 E23  .29+  .02-    180518 595  .84-  .18-    
180516 H01  .05+  .03+    180517 E23  .08-  .04-    180518 595  .18-  .32-    
180516 673  .03-  .06+    180517 K41  .54+  .06+    180518 595  .36+  .06+    
180516 673  .01-  .02+    180517 K41  .96+  .08+    180519 691  .11-  .13-    
180516 E08  .10-  .26-    180517 K41  .71-  .30+    180519 I52  .16+  .05-    
180516 E08  .09+  .26-    180517 K41  .56+  .21+    180519 I52  .07+  .52-    
180516 L01  .00   .12-    180517 K87  .07+  .76+    180519 I52  .46-  .79-    
180516 L01  .21+  .30+    180517 K87  .05+  .26-    180519 I52  .04+  .50-    
180516 L01  .19-  .15+    180517 K87  .50+  .57+    180519 691  .17-  .13-    
180516 L01  .21-  .18+    180517 K87  .05+  .21-    180519 Q62  .02+  .50+    
180517 G40  .01+  .15-    180518 W88  .35-  .04+    180519 Q62  .21-  .38+    
180517 G40  .06+  .09+    180518 W88  .13+  .06-    180519 Q62  .03+  .80+    
